Location: Redding Observatory
(29.1111°N, 81.3442°W)
Time: 21:41:12
(UTC-05:00)

X-37B - Visible Passes

Search period start: 20 January 2022 00:00
Search period end: 30 January 2022 00:00
Orbit: 334 x 337 km, 45.0° (Epoch: 11 January)

Date Brightness Start Highest point End Pass type
(mag) Time Alt. Az. Time Alt. Az. Time Alt. Az.
21 Jan 3.6 19:47:39 10° SSW 19:47:40 10° SSW 19:47:40 10° SSW visible
23 Jan 1.2 18:53:04 10° SSW 18:55:40 33° SE 18:56:32 26° E visible
24 Jan 0.8 19:13:17 10° WSW 19:16:03 53° NW 19:16:30 45° N visible
25 Jan 2.8 19:34:36 10° WNW 19:36:23 17° NW 19:36:23 17° NW visible
26 Jan 0.8 18:18:41 10° WSW 18:21:28 54° NW 18:24:15 10° NE visible
27 Jan 2.6 18:40:01 10° WNW 18:42:03 18° NNW 18:44:05 10° NNE visible
